EW7590 Weather Reports


time (UTC)temp
F
wind
direction
speed
knots
gust
knots
rain 1hr
in
rain 24hr
in
rain mn
in
humidity
%
barometer
mb
20260507085002 49 288 2.6 7.0 0.00 0.33 0.05 86 1006.8
20260507084502 49 315 0.9 2.6 0.00 0.33 0.05 86 1006.7
20260507084003 49 305 0.9 7.0 0.00 0.33 0.05 85 1007.0
20260507083502 49 291 0.9 9.6 0.00 0.33 0.05 86 1007.0
20260507083002 49 298 4.3 9.6 0.00 0.33 0.05 87 1006.7
20260507082502 50 306 0.9 2.6 0.00 0.33 0.05 88 1006.7
20260507082003 50 294 0.9 2.6 0.00 0.33 0.05 88 1006.7
20260507081545 50 284 0.9 3.5 0.00 0.33 0.05 87 1006.9
20260507081002 50 277 0.9 4.3 0.00 0.33 0.05 87 1006.7
20260507080502 50 282 1.7 4.3 0.00 0.33 0.05 87 1006.7
20260507080003 50 288 1.7 7.8 0.01 0.33 0.05 85 1006.9
20260507075502 51 316 1.7 7.8 0.01 0.33 0.05 85 1007.0
20260507075002 51 331 1.7 7.8 0.00 0.32 0.04 83 1006.9
20260507074524 51 325 2.6 7.8 0.00 0.32 0.04 84 1006.9
20260507074023 51 283 1.7 5.2 0.00 0.32 0.04 85 1007.1
20260507073502 51 305 1.7 4.3 0.00 0.32 0.04 84 1006.9
20260507073002 51 288 1.7 4.3 0.00 0.32 0.04 84 1006.7
20260507072502 51 317 1.7 3.5 0.00 0.32 0.04 84 1006.5
20260507072003 51 231 1.7 7.8 0.00 0.32 0.04 84 1006.4
20260507071523 51 320 2.6 7.8 0.00 0.32 0.04 84 1006.2
20260507071002 51 306 2.6 5.2 0.00 0.32 0.04 85 1006.3
20260507070503 51 310 0.9 5.2 0.00 0.32 0.04 86 1006.6
20260507070024 51 300 1.7 6.1 0.00 0.32 0.04 87 1006.3
20260507065502 51 325 0.9 6.1 0.00 0.32 0.04 86 1006.2
20260507065002 51 321 1.7 3.5 0.00 0.32 0.04 88 1006.2
20260507064503 51 244 0.9 2.6 0.00 0.32 0.04 88 1006.2
20260507064002 51 237 0.9 2.6 0.00 0.32 0.04 88 1006.3
20260507063502 51 274 0.9 2.6 0.00 0.32 0.04 87 1006.1
20260507063023 51 238 0.9 3.5 0.00 0.32 0.04 86 1006.4
20260507062503 51 274 0.0 3.5 0.00 0.32 0.04 84 1006.1
20260507062002 51 303 0.0 4.3 0.00 0.32 0.04 84 1006.0
20260507061502 51 319 2.6 8.7 0.00 0.32 0.04 83 1006.0
20260507061023 51 313 1.7 8.7 0.00 0.32 0.04 83 1006.1
20260507060502 51 294 1.7 7.0 0.00 0.32 0.04 83 1006.1
20260507060003 52 290 1.7 9.6 0.00 0.32 0.04 83 1006.2
20260507055502 52 308 4.3 9.6 0.00 0.32 0.04 83 1006.2
20260507055003 52 320 3.5 8.7 0.00 0.32 0.04 84 1006.3
20260507054502 52 284 2.6 8.7 0.00 0.32 0.04 85 1006.4
20260507054002 52 289 5.2 8.7 0.00 0.32 0.04 86 1006.5
20260507053502 52 289 2.6 7.0 0.00 0.32 0.04 86 1006.3
20260507053003 52 277 1.7 8.7 0.00 0.32 0.04 87 1006.3
20260507052502 52 302 2.6 8.7 0.00 0.32 0.04 86 1006.3
20260507052003 53 301 4.3 8.7 0.00 0.32 0.04 86 1006.5
20260507051502 53 305 3.5 7.8 0.00 0.32 0.04 87 1006.7
20260507051002 53 281 2.6 7.8 0.00 0.32 0.04 87 1006.6
20260507050502 53 277 2.6 7.0 0.00 0.32 0.04 88 1006.4
20260507050003 54 288 1.7 9.6 0.04 0.32 0.04 89 1006.5
20260507045503 54 308 1.7 9.6 0.04 0.32 0.04 89 1006.5
20260507045002 54 289 1.7 9.6 0.04 0.32 0.04 89 1006.4
20260507044503 55 278 2.6 9.6 0.04 0.32 0.04 89 1006.4
20260507044002 55 306 4.3 9.6 0.04 0.32 0.04 90 1006.2
20260507043503 56 305 2.6 8.7 0.04 0.32 0.04 90 1006.2
20260507043002 56 304 2.6 7.8 0.04 0.32 0.04 90 1006.2
20260507042502 56 310 4.3 7.8 0.03 0.31 0.03 90 1006.2
20260507042002 56 311 1.7 7.0 0.03 0.31 0.03 90 1006.2
20260507041502 57 318 3.5 7.8 0.03 0.31 0.03 89 1006.3
20260507041002 57 312 2.6 11.3 0.03 0.31 0.03 88 1006.4
20260507040502 57 303 6.1 11.3 0.02 0.30 0.02 88 1006.4
20260507040003 57 303 2.6 11.3 0.00 0.00 0.00 89 1006.2
20260507035502 58 259 0.9 7.8 0.00 0.28 0.28 91 1006.2
20260507035003 58 315 0.9 7.8 0.00 0.28 0.28 91 1005.9
20260507034502 58 223 0.0 2.6 0.00 0.28 0.28 91 1005.8
20260507034025 58 241 0.9 3.5 0.00 0.28 0.28 91 1005.9
20260507033502 58 234 0.9 8.7 0.00 0.28 0.28 90 1005.8
20260507033003 59 249 1.7 9.6 0.00 0.28 0.28 91 1005.6
20260507032523 59 295 2.6 10.4 0.00 0.28 0.28 91 1005.6
20260507032023 59 273 4.3 10.4 0.00 0.28 0.28 92 1005.5
20260507031503 59 219 2.6 7.0 0.00 0.28 0.28 92 1005.4
20260507031002 59 274 2.6 7.0 0.00 0.28 0.28 92 1005.4
20260507030503 59 241 1.7 8.7 0.00 0.28 0.28 92 1005.1
20260507030003 59 206 3.5 8.7 0.00 0.28 0.28 92 1005.1
20260507025503 59 211 2.6 8.7 0.00 0.28 0.28 92 1005.1
20260507025002 59 208 4.3 9.6 0.00 0.28 0.28 92 1005.1
20260507024503 59 193 4.3 9.6 0.00 0.28 0.28 92 1005.1
20260507024003 59 188 4.3 9.6 0.00 0.28 0.28 91 1005.2
20260507023502 59 195 5.2 9.6 0.00 0.28 0.28 91 1005.3
20260507023002 59 192 5.2 7.8 0.00 0.28 0.28 92 1005.2
20260507022502 59 208 4.3 7.8 0.00 0.28 0.28 92 1005.2
20260507022002 59 198 5.2 8.7 0.00 0.28 0.28 92 1005.1
20260507021524 59 192 3.5 9.6 0.00 0.28 0.28 92 1005.1
20260507021002 59 205 3.5 9.6 0.00 0.28 0.28 92 1005.1
20260507020503 59 186 4.3 8.7 0.00 0.28 0.28 92 1004.9
20260507020024 59 200 5.2 9.6 0.00 0.28 0.28 91 1005.0
20260507015503 59 202 5.2 9.6 0.00 0.28 0.28 91 1005.3
20260507015023 59 192 6.1 8.7 0.00 0.28 0.28 91 1005.2
20260507014502 59 190 4.3 8.7 0.00 0.28 0.28 91 1005.4
20260507014002 59 196 5.2 9.6 0.00 0.28 0.28 91 1005.3
20260507013502 59 202 3.5 9.6 0.00 0.28 0.28 91 1005.2
20260507013003 59 199 6.1 9.6 0.00 0.28 0.28 91 1005.3
20260507012502 59 195 4.3 9.6 0.00 0.28 0.28 92 1005.5
20260507012003 59 181 5.2 9.6 0.00 0.28 0.28 92 1005.4
20260507011502 59 201 4.3 12.2 0.00 0.28 0.28 92 1005.5
20260507011003 59 199 5.2 12.2 0.00 0.28 0.28 92 1005.5
20260507010502 59 198 4.3 8.7 0.00 0.28 0.28 92 1005.5
20260507010003 59 195 5.2 9.6 0.01 0.28 0.28 92 1005.6
20260507005502 59 202 3.5 9.6 0.01 0.28 0.28 92 1005.5
20260507005023 59 211 4.3 10.4 0.01 0.28 0.28 92 1005.4
20260507004524 59 201 6.1 10.4 0.01 0.28 0.28 92 1005.5
20260507004002 59 186 4.3 12.2 0.01 0.28 0.28 92 1005.4
20260507003524 59 191 7.0 12.2 0.00 0.27 0.27 92 1005.3
20260507003003 59 187 4.3 10.4 0.00 0.27 0.27 92 1005.2
20260507002523 59 204 4.3 9.6 0.00 0.27 0.27 92 1005.2
20260507002003 59 189 5.2 10.4 0.00 0.27 0.27 92 1005.3
20260507001502 59 189 5.2 10.4 0.00 0.27 0.27 92 1005.3
20260507001003 59 198 3.5 11.3 0.00 0.27 0.27 92 1005.1
20260507000502 59 193 6.1 11.3 0.00 0.27 0.27 92 1005.1
20260507000003 59 184 5.2 9.6 0.07 0.27 0.27 92 1005.0
20260506235502 59 188 5.2 9.6 0.07 0.27 0.27 92 1005.0
20260506235003 59 182 4.3 7.8 0.07 0.27 0.27 92 1005.0
20260506234502 59 179 5.2 10.4 0.07 0.27 0.27 92 1005.1
20260506234002 59 197 4.3 10.4 0.07 0.27 0.27 92 1004.9
20260506233503 59 187 4.3 10.4 0.07 0.27 0.27 92 1005.1
20260506233002 59 198 7.0 10.4 0.07 0.27 0.27 92 1005.0
20260506232504 60 192 4.3 9.6 0.07 0.27 0.27 92 1005.0
20260506232024 60 190 4.3 9.6 0.06 0.26 0.26 92 1005.1
20260506231045 60 189 4.3 9.6 0.02 0.22 0.22 91 1005.2
20260506230503 60 191 3.5 13.0 0.01 0.21 0.21 91 1005.2
20260506230002 60 192 6.1 13.0 0.08 0.20 0.20 91 1005.4
20260506225544 60 204 5.2 12.2 0.07 0.19 0.19 91 1005.4
20260506225003 60 183 4.3 13.0 0.06 0.18 0.18 91 1005.3
20260506224502 60 197 5.2 13.0 0.06 0.18 0.18 91 1005.3
20260506224024 60 181 5.2 13.0 0.04 0.16 0.16 91 1005.3
20260506223503 60 190 6.1 13.0 0.04 0.16 0.16 91 1005.5
20260506223002 60 194 4.3 11.3 0.03 0.15 0.15 91 1005.5
20260506222503 60 190 5.2 11.3 0.02 0.14 0.14 90 1005.5
20260506222002 60 197 2.6 10.4 0.01 0.13 0.13 90 1005.5
20260506221524 60 192 4.3 10.4 0.01 0.13 0.13 90 1005.6
20260506221024 60 180 3.5 10.4 0.01 0.13 0.13 90 1005.6
20260506220524 60 189 5.2 10.4 0.01 0.13 0.13 90 1005.6
20260506220002 60 178 6.1 12.2 0.02 0.12 0.12 90 1005.7
20260506215523 60 198 5.2 12.2 0.02 0.12 0.12 90 1005.7
20260506215002 60 183 7.0 12.2 0.01 0.11 0.11 90 1005.7
20260506214524 60 185 7.0 11.3 0.01 0.11 0.11 90 1005.7
20260506214023 60 192 6.1 10.4 0.01 0.11 0.11 90 1005.7
20260506213503 60 178 2.6 8.7 0.01 0.11 0.11 91 1005.8
20260506213023 60 203 4.3 8.7 0.01 0.11 0.11 90 1005.9
20260506212524 60 174 5.2 9.6 0.01 0.11 0.11 90 1006.1
20260506212003 60 188 6.1 9.6 0.01 0.11 0.11 90 1006.1
20260506211502 61 192 3.5 8.7 0.01 0.11 0.11 89 1006.1
20260506211003 61 179 5.2 15.6 0.00 0.10 0.10 89 1006.1
20260506210502 61 212 5.2 15.6 0.00 0.10 0.10 89 1006.3
20260506210003 61 197 4.3 11.3 0.00 0.10 0.10 89 1006.2
20260506205502 61 191 3.5 8.7 0.06 0.09 0.09 89 1006.2
20260506205002 61 199 5.2 9.6 0.06 0.09 0.09 89 1006.3
20260506204503 61 180 4.3 11.3 0.05 0.08 0.08 88 1006.3
20260506204002 61 191 5.2 11.3 0.04 0.07 0.07 87 1006.2
20260506203503 61 193 5.2 11.3 0.04 0.07 0.07 87 1006.3
20260506203024 62 190 6.1 13.9 0.03 0.06 0.06 86 1006.2
20260506202502 62 199 6.1 16.5 0.03 0.06 0.06 86 1006.1
20260506202003 62 184 5.2 20.9 0.02 0.05 0.05 84 1006.0
20260506201502 63 189 6.1 20.9 0.01 0.04 0.04 83 1006.2
20260506201003 63 185 7.8 12.2 0.00 0.03 0.03 83 1006.1
20260506200502 63 190 6.1 13.9 0.00 0.03 0.03 82 1006.2
20260506200003 63 188 5.2 13.9 0.03 0.03 0.03 82 1006.2
20260506195503 63 199 7.0 13.0 0.03 0.03 0.03 80 1006.1
20260506195002 64 198 7.8 12.2 0.03 0.03 0.03 79 1006.1
20260506194503 64 198 4.3 9.6 0.02 0.02 0.02 80 1006.1
20260506194045 65 189 7.0 13.9 0.02 0.02 0.02 78 1006.0
20260506193502 65 193 6.1 13.9 0.01 0.01 0.01 77 1006.0
20260506193024 65 196 5.2 13.0 0.01 0.01 0.01 75 1006.0
20260506192502 65 182 6.1 13.0 0.01 0.01 0.01 75 1005.9
20260506192002 66 197 5.2 11.3 0.01 0.01 0.01 73 1006.0
20260506191502 66 202 6.1 13.9 0.00 0.00 0.00 73 1006.1
20260506191045 67 202 5.2 13.9 0.00 0.00 0.00 70 1006.1
20260506190524 68 203 6.1 7.8 0.00 0.00 0.00 69 1006.1
20260506190002 68 190 4.3 10.4 0.00 0.00 0.00 66 1006.1
20260506185502 69 198 4.3 13.9 0.00 0.00 0.00 64 1006.0
20260506185002 69 193 8.7 13.9 0.00 0.00 0.00 62 1006.1
20260506184503 70 196 5.2 10.4 0.00 0.00 0.00 61 1006.0
20260506184003 70 200 6.1 12.2 0.00 0.00 0.00 61 1006.1
20260506183502 70 190 7.0 18.2 0.00 0.00 0.00 60 1006.0
20260506183003 71 194 9.6 24.3 0.00 0.00 0.00 57 1006.1
20260506182502 72 191 9.6 24.3 0.00 0.00 0.00 54 1006.1
20260506182003 72 195 8.7 14.8 0.00 0.00 0.00 53 1005.9
20260506181502 72 194 5.2 17.4 0.00 0.00 0.00 54 1006.1
20260506181002 72 192 6.1 17.4 0.00 0.00 0.00 53 1006.1
20260506180502 72 187 8.7 22.6 0.00 0.00 0.00 52 1006.2
20260506180004 73 187 10.4 22.6 0.00 0.00 0.00 51 1006.3
20260506175523 73 209 9.6 25.2 0.00 0.00 0.00 51 1006.2
20260506175003 73 190 12.2 25.2 0.00 0.00 0.00 51 1006.2
20260506174502 73 187 8.7 22.6 0.00 0.00 0.00 51 1006.3
20260506174003 73 182 13.0 23.5 0.00 0.00 0.00 52 1006.3
20260506173502 73 176 10.4 24.3 0.00 0.00 0.00 54 1006.3
20260506173003 73 184 8.7 24.3 0.00 0.00 0.00 55 1006.4
20260506172502 74 181 11.3 22.6 0.00 0.00 0.00 52 1006.3
20260506172003 75 185 7.8 20.0 0.00 0.00 0.00 51 1006.3
20260506171502 74 197 8.7 16.5 0.00 0.00 0.00 51 1006.4
20260506171023 74 175 5.2 14.8 0.00 0.00 0.00 51 1006.3
20260506170524 74 193 7.8 18.2 0.00 0.00 0.00 53 1006.4
20260506170023 73 184 10.4 18.2 0.00 0.00 0.00 53 1006.5
20260506165503 73 194 7.8 15.6 0.00 0.00 0.00 54 1006.6
20260506165045 73 187 7.8 15.6 0.00 0.00 0.00 53 1006.8
20260506164502 72 192 7.8 17.4 0.00 0.00 0.00 53 1006.8
20260506164003 72 186 10.4 17.4 0.00 0.00 0.00 53 1006.9
20260506163524 72 207 8.7 17.4 0.00 0.00 0.00 54 1006.9
20260506163003 72 177 8.7 17.4 0.00 0.00 0.00 53 1006.9
20260506162502 72 202 9.6 16.5 0.00 0.00 0.00 53 1007.1
20260506162002 73 179 6.1 13.9 0.00 0.00 0.00 54 1007.1
20260506161502 72 183 7.0 13.9 0.00 0.00 0.00 53 1007.3
20260506161002 72 189 5.2 19.1 0.00 0.00 0.00 54 1007.4
20260506160503 72 203 9.6 19.1 0.00 0.00 0.00 54 1007.5
20260506160002 72 197 5.2 15.6 0.00 0.00 0.00 55 1007.6
20260506155503 72 179 6.1 13.0 0.00 0.00 0.00 56 1007.7
20260506155023 72 196 3.5 13.0 0.00 0.00 0.00 58 1007.9
20260506154524 72 185 7.8 13.0 0.00 0.00 0.00 57 1008.0
20260506154002 72 220 6.1 13.9 0.00 0.00 0.00 56 1008.1
20260506153503 72 191 7.0 13.9 0.00 0.00 0.00 57 1008.2
20260506153024 72 178 7.8 12.2 0.00 0.00 0.00 57 1008.3
20260506152502 71 192 6.1 15.6 0.00 0.00 0.00 57 1008.2
20260506152003 71 177 7.0 15.6 0.00 0.00 0.00 58 1008.4
20260506151502 71 215 7.0 15.6 0.00 0.00 0.00 58 1008.6
20260506151003 71 186 8.7 13.9 0.00 0.00 0.00 58 1008.4
20260506150503 71 202 4.3 14.8 0.00 0.00 0.00 59 1008.3
20260506150002 71 174 6.1 14.8 0.00 0.00 0.00 59 1008.5
20260506145503 71 179 6.1 13.9 0.00 0.00 0.00 61 1008.8
20260506145002 71 175 5.2 13.9 0.00 0.00 0.00 61 1008.6
20260506144503 70 181 6.1 13.9 0.00 0.00 0.00 61 1008.5
20260506144002 70 195 7.0 13.0 0.00 0.00 0.00 61 1008.6
20260506143503 70 181 7.8 19.1 0.00 0.00 0.00 61 1008.4
20260506143024 69 187 7.8 19.1 0.00 0.00 0.00 63 1008.5
20260506142503 70 184 7.0 15.6 0.00 0.00 0.00 63 1008.4
20260506142002 69 192 7.8 14.8 0.00 0.00 0.00 63 1008.4
20260506141503 69 180 6.1 14.8 0.00 0.00 0.00 63 1008.2
20260506141023 69 189 4.3 14.8 0.00 0.00 0.00 66 1008.5
20260506140503 68 192 9.6 14.8 0.00 0.00 0.00 65 1008.4
20260506140002 68 182 6.1 16.5 0.00 0.00 0.00 66 1008.5
20260506135503 68 189 8.7 16.5 0.00 0.00 0.00 66 1008.3
20260506135003 67 185 7.0 13.0 0.00 0.00 0.00 67 1008.6
20260506134502 67 181 7.8 13.0 0.00 0.00 0.00 67 1008.6
20260506134002 67 176 7.0 11.3 0.00 0.00 0.00 67 1008.8
20260506133503 66 189 7.0 13.0 0.00 0.00 0.00 68 1008.9
20260506133002 66 190 6.1 16.5 0.00 0.00 0.00 68 1009.0
20260506132503 66 201 7.8 16.5 0.00 0.00 0.00 68 1009.0
20260506132002 66 178 6.1 12.2 0.00 0.00 0.00 68 1009.0
20260506131503 66 189 6.1 12.2 0.00 0.00 0.00 69 1008.9
20260506131003 66 200 5.2 14.8 0.00 0.00 0.00 69 1009.0
20260506130502 65 177 6.1 15.6 0.00 0.00 0.00 69 1008.9
20260506130003 65 188 7.8 15.6 0.00 0.00 0.00 70 1009.0
20260506125502 65 184 7.0 15.6 0.00 0.00 0.00 69 1008.9
20260506125003 66 207 7.0 15.6 0.00 0.00 0.00 69 1009.0
20260506124502 65 195 6.1 14.8 0.00 0.00 0.00 69 1008.8
20260506124003 65 182 9.6 14.8 0.00 0.00 0.00 69 1008.9
20260506123502 65 194 7.8 13.9 0.00 0.00 0.00 69 1008.9
20260506123002 65 195 6.1 13.9 0.00 0.00 0.00 70 1009.0
20260506122524 65 197 4.3 13.9 0.00 0.00 0.00 70 1009.2
20260506122024 65 179 5.2 13.0 0.00 0.00 0.00 69 1009.0
20260506121524 66 202 6.1 12.2 0.00 0.00 0.00 68 1009.1
20260506121002 65 206 4.3 12.2 0.00 0.00 0.00 71 1008.9
20260506120503 64 186 6.1 12.2 0.00 0.00 0.00 72 1008.9
20260506120004 64 187 6.1 12.2 0.00 0.00 0.00 72 1009.2
20260506115523 64 210 6.1 13.0 0.00 0.00 0.00 71 1009.1
20260506115003 64 203 7.8 13.0 0.00 0.00 0.00 71 1009.1
20260506114502 64 181 5.2 15.6 0.00 0.00 0.00 72 1009.2
20260506114003 64 189 9.6 15.6 0.00 0.00 0.00 72 1009.2
20260506113503 63 192 7.8 13.9 0.00 0.00 0.00 72 1009.3
20260506113002 63 198 6.1 13.9 0.00 0.00 0.00 72 1009.4
20260506112502 63 206 6.1 13.9 0.00 0.00 0.00 72 1009.4
20260506112003 63 185 7.0 13.9 0.00 0.00 0.00 72 1009.4
20260506111503 63 187 5.2 13.0 0.00 0.00 0.00 73 1009.3
20260506111002 63 201 7.0 13.0 0.00 0.00 0.00 73 1009.2
20260506110503 62 182 5.2 13.9 0.00 0.00 0.00 73 1009.3
20260506110044 62 202 7.0 13.9 0.00 0.00 0.00 74 1009.3
20260506105504 62 186 5.2 13.0 0.00 0.00 0.00 74 1009.4
20260506105002 61 192 4.3 10.4 0.00 0.00 0.00 74 1009.5
20260506104545 61 192 5.2 10.4 0.00 0.00 0.00 74 1009.5
20260506104002 61 179 7.0 10.4 0.00 0.00 0.00 75 1009.4
20260506103503 61 184 6.1 8.7 0.00 0.00 0.00 74 1009.3
20260506103003 61 185 4.3 10.4 0.00 0.00 0.00 74 1009.3
20260506102525 61 187 3.5 12.2 0.00 0.00 0.00 74 1009.3
20260506102002 61 189 7.8 12.2 0.00 0.00 0.00 74 1009.3
20260506101503 61 193 5.2 13.9 0.00 0.00 0.00 74 1009.4
20260506101002 61 191 7.0 13.9 0.00 0.00 0.00 74 1009.3
20260506100503 61 191 5.2 10.4 0.00 0.00 0.00 74 1009.3
20260506100003 61 197 6.1 10.4 0.00 0.00 0.00 74 1009.4
20260506095503 61 192 7.0 10.4 0.00 0.00 0.00 74 1009.3
20260506095002 61 187 5.2 13.9 0.00 0.00 0.00 73 1009.3
20260506094503 61 196 7.8 13.9 0.00 0.00 0.00 73 1009.2
20260506094002 61 186 5.2 14.8 0.00 0.00 0.00 73 1009.0
20260506093503 61 186 7.0 14.8 0.00 0.00 0.00 73 1009.3
20260506093002 61 186 4.3 10.4 0.00 0.00 0.00 73 1009.3
20260506092502 61 191 6.1 10.4 0.00 0.00 0.00 73 1009.2
20260506092002 61 189 7.0 11.3 0.00 0.00 0.00 73 1009.2
20260506091503 61 192 7.0 11.3 0.00 0.00 0.00 73 1009.2
20260506091002 61 180 6.1 11.3 0.00 0.00 0.00 73 1009.2
20260506090503 62 189 4.3 11.3 0.00 0.00 0.00 72 1009.2
20260506090004 62 177 5.2 11.3 0.00 0.00 0.00 72 1009.2